West Tisbury, MA

10:09 AM EDT on August 25, 2016 (GMT -0400)
Martha's Vineyard

Weather History for KMVY - July, 2013

Change the Weather History Date:

Friday, July 19, 2013

  Actual Average Record
Temperature  
Mean Temperature 81 °F -  
Max Temperature 88 °F 81 °F 92 °F (1977)
Min Temperature 75 °F 63 °F 50 °F (2000)
Cooling Degree Days 16    
Growing Degree Days 31 (Base 50)    
Moisture  
Dew Point 75 °F    
Average Humidity 87    
Maximum Humidity 100    
Minimum Humidity 69    
Precipitation  
Precipitation 0.00 in - - ()
Sea Level Pressure  
Sea Level Pressure 29.90 in    
Wind  
Wind Speed 9 mph (SW)    
Max Wind Speed 18 mph    
Max Gust Speed 28 mph    
Visibility 5 miles    
Events      
Averages and records for this station are not official NWS values.
T = Trace of Precipitation, MM = Missing Value Source: NWS Daily Summary

Daily Weather History Graph

Daily Weather History Graph

Search for Another Location

Airport or City:

Trip Planner

Search our weather history database for the weather conditions in past years. The results will help you decide how hot, cold, wet, or windy it might be!

Date:

Astronomy

Jul. 19, 2013 Rise Set
Actual Time 5:25 AM EDT 8:11 PM EDT
Civil Twilight 4:53 AM EDT 8:43 PM EDT
Nautical Twilight 4:12 AM EDT 9:24 PM EDT
Astronomical Twilight 3:25 AM EDT 10:11 PM EDT
Moon 5:10 PM EDT (7/19) 2:03 AM EDT (7/19)
Length of Visible Light 15h 50m
Length of Day
14h 45m
Waxing Gibbous, 86% of the Moon is Illuminated
Jul 19
Waxing Gibbous
Jul 22
Full
Jul 29
Last Quarter
Aug 6
New
Aug 14
First Quarter

Hourly Weather History & Observations

Time (EDT) Temp. Heat Index Dew Point Humidity Pressure Visibility Wind Dir Wind Speed Gust Speed Precip Events Conditions
12:04 AM 75.2 °F - 75.2 °F 100% 29.98 in 1.8 mi SSW 5.8 mph - N/A   Scattered Clouds
12:21 AM 75.2 °F - 73.4 °F 94% 29.97 in 2.5 mi SSW 5.8 mph - N/A   Clear
12:43 AM 75.2 °F - 75.2 °F 100% 29.97 in 3.0 mi SW 5.8 mph - N/A   Clear
12:53 AM 75.9 °F - 75.0 °F 97% 29.96 in 3.0 mi SSW 6.9 mph - N/A   Clear
1:53 AM 75.9 °F - 75.0 °F 97% 29.96 in 3.0 mi SW 8.1 mph - N/A   Clear
2:53 AM 75.9 °F - 73.9 °F 94% 29.96 in 3.0 mi SW 8.1 mph - N/A   Clear
3:53 AM 77.0 °F - 73.9 °F 90% 29.94 in 4.0 mi WSW 8.1 mph - N/A   Clear
4:53 AM 77.0 °F - 73.9 °F 90% 29.94 in 4.0 mi SW 5.8 mph - N/A   Clear
5:36 AM 75.2 °F - 73.4 °F 94% 29.94 in 2.0 mi SW 5.8 mph - N/A   Clear
5:47 AM 75.2 °F - 73.4 °F 94% 29.94 in 2.0 mi SW 5.8 mph - N/A   Overcast
5:53 AM 75.9 °F - 73.9 °F 94% 29.94 in 2.0 mi SW 5.8 mph - N/A   Overcast
6:53 AM 75.9 °F - 73.9 °F 94% 29.93 in 2.5 mi SW 5.8 mph - N/A   Overcast
7:15 AM 78.8 °F - 75.2 °F 89% 29.93 in 3.0 mi SW 8.1 mph - N/A   Overcast
7:53 AM 80.1 °F 85.4 °F 75.9 °F 87% 29.94 in 5.0 mi SW 6.9 mph - N/A   Clear
8:53 AM 82.0 °F 89.4 °F 75.9 °F 82% 29.93 in 6.0 mi SSW 10.4 mph - N/A   Haze
9:53 AM 82.9 °F 90.8 °F 75.9 °F 79% 29.92 in 6.0 mi SW 12.7 mph - N/A   Haze
10:53 AM 84.9 °F 95.3 °F 77.0 °F 77% 29.92 in 7.0 mi WSW 11.5 mph 18.4 mph N/A   Clear
11:53 AM 87.1 °F 97.3 °F 75.9 °F 69% 29.91 in 8.0 mi WSW 12.7 mph 21.9 mph N/A   Clear
12:53 PM 86.0 °F 96.9 °F 77.0 °F 74% 29.90 in 7.0 mi SSW 13.8 mph - N/A   Clear
1:53 PM 84.0 °F 92.6 °F 75.9 °F 76% 29.88 in 6.0 mi SW 18.4 mph 24.2 mph N/A   Haze
2:53 PM 82.9 °F 90.8 °F 75.9 °F 79% 29.86 in 6.0 mi SW 17.3 mph 25.3 mph N/A   Haze
3:53 PM 82.0 °F 89.4 °F 75.9 °F 82% 29.84 in 6.0 mi SW 18.4 mph 26.5 mph N/A   Haze
4:53 PM 81.0 °F 86.7 °F 75.0 °F 82% 29.83 in 5.0 mi SW 17.3 mph 27.6 mph N/A   Haze
5:53 PM 81.0 °F 86.7 °F 75.0 °F 82% 29.81 in 6.0 mi SW 13.8 mph 26.5 mph N/A   Haze
6:53 PM 79.0 °F - 73.9 °F 84% 29.81 in 5.0 mi SW 15.0 mph 24.2 mph N/A   Haze
7:53 PM 78.1 °F - 73.9 °F 87% 29.82 in 5.0 mi SW 16.1 mph 23.0 mph N/A   Clear
8:53 PM 77.0 °F - 73.0 °F 88% 29.83 in 6.0 mi SW 15.0 mph - N/A   Clear
9:53 PM 77.0 °F - 73.0 °F 88% 29.84 in 6.0 mi SW 11.5 mph 20.7 mph N/A   Clear
10:53 PM 77.0 °F - 73.0 °F 88% 29.83 in 6.0 mi SW 13.8 mph - N/A   Clear
11:53 PM 78.1 °F - 73.0 °F 84% 29.82 in 6.0 mi SW 12.7 mph - N/A   Haze